Waarnemingen

Advertentie
Mijn weer
Chievres, België (6432): temperatuur & dauwpunt: 12.02.2018 21:00:00 - 18.02.2018 21:00:00 (CET)Chievres, België (6432): windsnelheid & windstoten: 12.02.2018 21:00:00 - 18.02.2018 21:00:00 (CET)Chievres, België (6432): windrichting: 12.02.2018 21:00:00 - 18.02.2018 21:00:00 (CET)Chievres, België (6432): luchtdruk: 12.02.2018 21:00:00 - 18.02.2018 21:00:00 (CET)Chievres, België (6432): zicht: 12.02.2018 21:00:00 - 18.02.2018 21:00:00 (CET)
Datum & Tijd tt [°C] td [°C] ff [km/u] ff [kn] fx [km/u] fx [kn] dd ppp [hPa] vv [km]
18.02.2018 21:00:00 2,8 -0,1 11 6 18 10 ZZO 1024,2 9
18.02.2018 20:00:00 3,3 -0,2 7 4 14 8 ZZO 1024,2 15
18.02.2018 19:00:00 3,6 0,0 7 4 - - Z 1024,2 19
18.02.2018 18:00:00 5,5 0,1 7 4 18 10 Z 1024,2 20
18.02.2018 17:00:00 7,0 0,4 11 6 18 10 Z 1024,2 20
18.02.2018 16:00:00 7,8 0,8 11 6 - - Z 1024,5 17
18.02.2018 15:00:00 7,3 1,6 14 8 22 12 Z 1024,5 16
18.02.2018 14:00:00 6,9 1,4 14 8 25 14 Z 1025,0 17
18.02.2018 13:00:00 6,5 2,3 14 8 - - Z 1025,7 10
18.02.2018 12:00:00 3,9 2,7 7 4 14 8 Z 1026,4 5
18.02.2018 11:00:00 1,1 1,1 7 4 14 8 ZZO 1026,2 1,1
18.02.2018 10:00:00 -0,1 -0,1 7 4 - - ZZO 1026,2 0,3
18.02.2018 09:00:00 -0,4 -0,7 11 6 18 10 ZZO 1025,7 1,8
18.02.2018 08:00:00 -0,1 -0,6 11 6 14 8 ZZO 1025,7 3,8
18.02.2018 07:00:00 -0,9 -1,4 4 2 - - N 1025,7 3,3
18.02.2018 06:00:00 -1,7 -2,3 4 2 4 2 N 1025,9 2,6
18.02.2018 05:00:00 -1,0 -1,9 4 2 4 2 N 1025,7 2,8
18.02.2018 04:00:00 -1,7 -2,4 4 2 - - N 1025,5 3,5
18.02.2018 03:00:00 -1,3 -1,9 4 2 4 2 N 1025,9 3,0
18.02.2018 02:00:00 -1,1 -2,1 4 2 4 2 N 1026,0 4,2
18.02.2018 01:00:00 -0,5 -1,7 4 2 - - N 1025,9 6
18.02.2018 00:00:00 -0,6 -1,5 4 2 7 4 N 1025,7 4,0
17.02.2018 23:00:00 -0,1 -0,9 4 2 11 6 N 1025,5 5
17.02.2018 22:00:00 0,1 -0,6 4 2 - - N 1025,2 5
17.02.2018 21:00:00 0,7 -0,4 4 2 4 2 N 1024,7 8
17.02.2018 20:00:00 2,2 0,2 4 2 4 2 N 1024,5 11
17.02.2018 19:00:00 5,0 0,6 4 2 - - N 1024,0 14
17.02.2018 18:00:00 5,6 0,6 7 4 7 4 NNO 1023,2 17
17.02.2018 17:00:00 7,6 0,5 4 2 11 6 N 1022,7 19
17.02.2018 16:00:00 7,9 0,4 4 2 - - N 1022,3 17
17.02.2018 15:00:00 7,8 0,6 4 2 11 6 N 1022,1 14
17.02.2018 14:00:00 6,8 0,5 4 2 11 6 N 1022,0 19
17.02.2018 13:00:00 6,0 0,8 4 2 - - N 1022,2 16
17.02.2018 12:00:00 5,1 0,5 7 4 14 8 O 1022,1 18
17.02.2018 11:00:00 4,1 0,4 4 2 7 4 N 1022,1 18
17.02.2018 10:00:00 1,8 0,1 7 4 - - NO 1021,8 16
17.02.2018 09:00:00 1,0 -0,6 7 4 11 6 NNO 1021,6 16
17.02.2018 08:00:00 0,8 -1,0 7 4 11 6 ONO 1021,2 18
17.02.2018 07:00:00 0,6 -1,0 11 6 - - ONO 1020,8 16
17.02.2018 06:00:00 0,5 -0,5 7 4 11 6 ONO 1021,7 13
17.02.2018 05:00:00 1,1 -0,6 7 4 11 6 O 1022,1 17
17.02.2018 04:00:00 1,1 -0,8 4 2 - - N 1022,7 17
17.02.2018 03:00:00 0,6 -1,2 7 4 11 6 ONO 1023,6 16
17.02.2018 02:00:00 1,0 -1,2 4 2 11 6 N 1024,0 17
17.02.2018 01:00:00 0,5 -1,4 7 4 - - O 1024,2 15
17.02.2018 00:00:00 0,3 -1,4 7 4 7 4 O 1025,2 12
16.02.2018 23:00:00 0,8 -1,2 7 4 11 6 OZO 1025,7 13
16.02.2018 22:00:00 0,6 -0,8 7 4 - - N 1025,9 14
16.02.2018 21:00:00 0,5 -0,9 4 2 7 4 N 1026,7 19
16.02.2018 20:00:00 1,6 -0,8 4 2 7 4 N 1026,7 19
16.02.2018 19:00:00 3,3 -0,2 4 2 - - N 1027,0 20
16.02.2018 18:00:00 5,9 0,2 4 2 4 2 N 1026,5 20
16.02.2018 17:00:00 8,4 -2,1 4 2 7 4 N 1026,7 20
16.02.2018 16:00:00 8,2 -2,2 4 2 - - N 1027,0 20
16.02.2018 15:00:00 8,1 -2,9 4 2 11 6 N 1027,0 20
16.02.2018 14:00:00 8,0 -1,1 4 2 7 4 N 1027,7 13
16.02.2018 13:00:00 7,2 0,2 4 2 - - N 1027,9 20
16.02.2018 12:00:00 6,1 1,9 4 2 11 6 N 1028,0 15
16.02.2018 11:00:00 4,6 2,4 7 4 11 6 WZW 1027,5 15
16.02.2018 10:00:00 3,0 1,5 4 2 - - N 1027,2 9
16.02.2018 09:00:00 1,1 0,7 7 4 11 6 ZW 1026,4 10
16.02.2018 08:00:00 -0,2 -0,3 7 4 11 6 ZW 1025,7 9
16.02.2018 07:00:00 -0,1 -0,2 7 4 - - ZW 1025,0 9
16.02.2018 06:00:00 0,6 0,4 11 6 14 8 WZW 1024,5 10
16.02.2018 05:00:00 0,8 0,7 11 6 14 8 ZW 1023,7 8
16.02.2018 04:00:00 0,6 0,4 7 4 - - ZW 1023,3 8
16.02.2018 03:00:00 1,1 0,9 11 6 14 8 ZW 1022,8 9
16.02.2018 02:00:00 1,9 1,4 11 6 14 8 ZW 1022,2 10
16.02.2018 01:00:00 2,9 2,0 7 4 - - WZW 1021,5 12
16.02.2018 00:00:00 3,2 2,1 11 6 14 8 ZW 1020,6 13
15.02.2018 23:00:00 3,9 2,5 11 6 14 8 ZW 1019,8 16
15.02.2018 22:00:00 2,5 0,7 7 4 - - ZW 1019,0 16
15.02.2018 21:00:00 4,5 2,1 11 6 14 8 WZW 1018,2 19
15.02.2018 20:00:00 5,7 2,9 11 6 14 8 WZW 1017,5 19
15.02.2018 19:00:00 6,5 3,2 11 6 - - W 1016,6 20
15.02.2018 18:00:00 7,9 3,6 11 6 29 16 WZW 1015,3 20
15.02.2018 17:00:00 10,3 3,9 18 10 32 18 WZW 1014,2 19
15.02.2018 16:00:00 11,0 5,0 22 12 - - W 1013,5 20
15.02.2018 15:00:00 10,6 7,3 18 10 29 16 WZW 1012,7 18
15.02.2018 14:00:00 9,8 8,4 18 10 25 14 ZW 1012,2 10
15.02.2018 13:00:00 8,3 7,8 18 10 - - ZW 1012,0 10
15.02.2018 12:00:00 7,3 6,9 25 14 32 18 ZZW 1011,3 9
15.02.2018 11:00:00 6,4 6,3 22 12 29 16 ZZW 1010,7 8
15.02.2018 10:00:00 5,5 5,4 18 10 - - ZZW 1010,2 10
15.02.2018 09:00:00 4,9 4,6 22 12 32 18 ZZW 1009,6 7
15.02.2018 08:00:00 4,0 3,6 22 12 29 16 Z 1008,7 20
15.02.2018 07:00:00 3,5 3,2 21 11 - - Z 1008,2 10
15.02.2018 06:00:00 3,2 2,9 22 12 36 19 Z 1008,1 3,3
15.02.2018 05:00:00 3,0 2,7 22 12 40 21 Z 1008,2 7
15.02.2018 04:00:00 3,0 2,4 25 14 - - Z 1008,1 4,1
15.02.2018 03:00:00 2,9 2,0 25 14 40 21 Z 1008,2 3,4
15.02.2018 02:00:00 3,0 1,3 22 12 54 29 Z 1008,2 6
15.02.2018 01:00:00 2,7 1,3 32 18 - - Z 1009,0 18
15.02.2018 00:00:00 3,0 1,2 31 17 47 25 Z 1009,8 6
14.02.2018 23:00:00 3,5 0,2 25 14 43 23 Z 1010,3 12
14.02.2018 22:00:00 4,1 -0,3 25 14 - - Z 1011,0 20
14.02.2018 21:00:00 4,1 -0,5 22 12 40 21 Z 1011,5 20
14.02.2018 20:00:00 4,1 -0,7 18 10 40 21 ZZO 1011,8 20
14.02.2018 19:00:00 4,0 -0,6 22 12 - - ZZO 1012,2 20
14.02.2018 18:00:00 4,1 -0,6 18 10 40 21 ZZO 1012,6 20
14.02.2018 17:00:00 4,4 -0,2 25 14 43 23 Z 1013,2 20
14.02.2018 16:00:00 4,6 -0,6 22 12 - - Z 1013,2 19
14.02.2018 15:00:00 5,2 -0,6 29 16 40 21 Z 1013,1 20
14.02.2018 14:00:00 4,8 -1,0 29 16 40 21 Z 1013,2 20
14.02.2018 13:00:00 4,3 -1,4 25 14 - - Z 1013,8 20
14.02.2018 12:00:00 3,7 -1,5 29 16 40 21 Z 1013,7 20
14.02.2018 11:00:00 2,5 -2,6 22 12 29 16 Z 1013,8 18
14.02.2018 10:00:00 0,9 -3,7 14 8 - - ZZO 1013,6 20
14.02.2018 09:00:00 -0,5 -4,3 14 8 22 12 ZZO 1013,5 19
14.02.2018 08:00:00 -0,8 -4,6 14 8 22 12 ZZO 1013,2 20
14.02.2018 07:00:00 -0,6 -4,5 11 6 - - ZZO 1012,7 20
14.02.2018 06:00:00 -0,3 -4,5 18 10 25 14 ZZO 1012,2 20
14.02.2018 05:00:00 -0,5 -4,4 14 8 22 12 ZO 1012,0 20
14.02.2018 04:00:00 -0,1 -4,5 11 6 - - ZO 1011,8 20
14.02.2018 03:00:00 0,4 -4,6 14 8 22 12 ZO 1011,2 20
14.02.2018 02:00:00 0,3 -4,5 11 6 18 10 ZO 1010,6 20
14.02.2018 01:00:00 0,6 -4,4 11 6 - - ZO 1010,5 20
14.02.2018 00:00:00 1,7 -5,0 14 8 22 12 ZZO 1009,8 20
13.02.2018 23:00:00 2,2 -5,2 14 8 29 16 ZZO 1009,6 20
13.02.2018 22:00:00 2,7 -5,0 14 8 - - ZZO 1009,3 20
13.02.2018 21:00:00 2,5 -4,9 18 10 25 14 ZO 1008,7 20
13.02.2018 20:00:00 2,3 -4,6 11 6 25 14 ZO 1008,5 20
13.02.2018 19:00:00 3,0 -4,7 14 8 - - ZZO 1008,2 20
13.02.2018 18:00:00 3,1 -4,5 18 10 36 19 Z 1008,1 20
13.02.2018 17:00:00 3,8 -3,9 22 12 47 25 Z 1007,6 20
13.02.2018 16:00:00 4,6 -4,1 32 18 - - Z 1007,2 20
13.02.2018 15:00:00 5,0 -3,3 36 19 58 31 Z 1007,7 19
13.02.2018 14:00:00 4,9 -3,4 40 21 50 27 Z 1008,3 20
13.02.2018 13:00:00 4,1 -2,6 32 18 - - Z 1009,2 20
13.02.2018 12:00:00 3,9 -2,6 25 14 40 21 Z 1009,7 20
13.02.2018 11:00:00 3,2 -2,7 25 14 36 19 Z 1010,3 20
13.02.2018 10:00:00 2,0 -2,2 22 12 - - ZZO 1010,7 20
13.02.2018 09:00:00 0,5 -2,3 18 10 25 14 ZZO 1011,2 20
13.02.2018 08:00:00 -0,2 -2,3 14 8 25 14 Z 1011,8 20
13.02.2018 07:00:00 0,1 -2,0 14 8 - - Z 1012,5 20
13.02.2018 06:00:00 0,2 -1,8 18 10 22 12 Z 1013,0 20
13.02.2018 05:00:00 -0,3 -1,7 14 8 25 14 Z 1013,5 20
13.02.2018 04:00:00 0,1 -1,6 14 8 - - Z 1014,2 20
13.02.2018 03:00:00 0,0 -1,3 14 8 22 12 Z 1015,1 17
13.02.2018 02:00:00 0,3 -1,3 14 8 22 12 Z 1015,6 20
13.02.2018 01:00:00 -0,4 -1,6 14 8 - - Z 1016,2 19
13.02.2018 00:00:00 0,2 -1,5 14 8 18 10 Z 1016,6 20
12.02.2018 23:00:00 0,1 -1,9 11 6 18 10 ZZW 1016,8 19
12.02.2018 22:00:00 0,4 -2,1 14 8 - - ZZW 1017,2 20
12.02.2018 21:00:00 0,3 -2,1 11 6 14 8 ZZW 1017,2 20

tt = temperatuur
td = dauwpunt
ff = windsnelheid
fx = windstoten
dd = windrichting
ppp = luchtdruk
vv = zicht

Weerstations in de omgeving